Regional Weather Roundup
Issued by NWS

Home | Current Version | Previous Version | Graphics & Text | Print | Product List | Glossary On
Versions: 1 2 3 4 5 6 7 8 9 10 11 12 13 14 15 16 17 18 19 20 21 22 23 24 25 26 27 28 29 30 31 32 33 34 35 36 37 38 39 40 41 42 43 44 45 46 47 48 49 50
624
ASUS43 KMPX 250501
RWRMN
WEATHER ROUNDUP FOR MINNESOTA
NATIONAL WEATHER SERVICE TWIN CITIES/CHANHASSEN MN
1200 AM CDT THU AUG 25 2016


NOTE: "FAIR" INDICATES FEW OR NO CLOUDS BELOW 12,000 FEET WITH NO
SIGNIFICANT WEATHER AND/OR OBSTRUCTIONS TO VISIBILITY. N/A MEANS
CURRENT SKY AND/OR WEATHER CONDITIONS ARE NOT AVAILABLE.

MNZ060>063-068>070-250600-
   Twin Cities Metro

CITY           SKY/WX    TMP DP  RH WIND       PRES   REMARKS
TWIN CITIES    CLOUDY    69  59  70 SW6       30.01R
ST PAUL        CLOUDY    67  58  72 W5        30.00R
CRYSTAL        CLOUDY    66  57  72 W7        29.99R
BLAINE         CLOUDY    68  59  73 W5        30.00R
LAKEVILLE      PTCLDY    63  59  88 W3        30.02S
EDEN PRAIRIE   CLOUDY    65  60  84 SW5       30.01R
LAKEVILLE      PTCLDY    63  59  88 W3        30.02S
SOUTH ST PAUL  CLOUDY    67  59  77 W5        30.00R
LAKE ELMO      FAIR      64  59  82 CALM      30.01R
$$
MNZ001>005-007-008-013>017-022>024-027-028-250600-
   Northwest Minnesota

CITY           SKY/WX    TMP DP  RH WIND       PRES   REMARKS
BEMIDJI        CLEAR     59  52  79 SW6       29.93S
HALLOCK        CLEAR     61  55  82 SW13      29.85F
ROSEAU         CLEAR     59  54  82 SW7       29.85F
WARROAD        CLEAR     57  54  88 SW5       29.86F
THIEF RVR FALL CLEAR     59  51  75 SW9       29.90F
CROOKSTON      CLEAR     61  52  72 W12       29.91S
FOSSTON        CLEAR     54  50  87 SW7       29.94S
DETROIT LAKES  CLEAR     61  52  72 W6        29.98S
MOORHEAD       PTCLDY    57  52  82 W7        29.97S
PARK RAPIDS    CLEAR     56  52  86 SW6       29.96S
MAHNOMEN       FAIR      54  51  89 SW8       29.95S
$$
MNZ006-009>011-018-025>026-250600-
   North Central Minnesota

CITY           SKY/WX    TMP DP  RH WIND       PRES   REMARKS
BAUDETTE       CLEAR     56  52  86 SW6       29.86F
FLAG ISLAND    CLEAR     63  54  72 SW6       29.83S HAZE
INTL FALLS     CLEAR     52  50  93 CALM      29.88F
WASKISH        CLEAR     66  55  68 W13G18    29.89F
BIG FORK       CLEAR     54  52  94 CALM      29.92S
LONGVILLE      CLEAR     57  55  94 SW5       29.94F
GRAND RAPIDS   CLEAR     60  54  80 CALM      29.95S
CRANE LAKE     CLEAR     54  52  94 S2        29.91S
ORR            CLEAR     57  52  82 CALM      29.88F
COOK           CLEAR     57  54  88 CALM      29.92S
WALKER         FAIR      58  51  79 W5        29.94F
$$
MNZ012-019>021-037-250600-
   Northeast Minnesota

CITY           SKY/WX    TMP DP  RH WIND       PRES   REMARKS
DULUTH         CLOUDY    60  55  83 W8        29.94S
ELY            CLOUDY    59  52  77 W5        29.91S
HIBBING        CLEAR     52  51  97 CALM      29.93S
EVELETH        CLOUDY    54  52  94 CALM      29.94S
DULUTH HARBOR  MOCLDY    66  61  82 SW6       29.93S
TWO HARBORS    CLOUDY    64  57  77 CALM      29.91S
SILVER BAY     CLOUDY    63  55  77 CALM      29.90R
G MARAIS ARPRT CLOUDY    63  52  67 W3        29.90S
$$
MNZ029>031-032-039>041-046>048-054>057-064-250600-
   West Central Minnesota

CITY           SKY/WX    TMP DP  RH WIND       PRES   REMARKS
FERGUS FALLS   CLEAR     57  54  88 W5        30.00S
WHEATON        CLEAR     63  57  82 SW5       30.02R
MORRIS         CLEAR     59  55  88 CALM      30.00S
ALEXANDRIA     CLEAR     59  55  87 W7        30.01S
ELBOW LAKE     FAIR      57  54  91 SW6       30.01R
WADENA         CLEAR     55  52  88 W5        29.98R
GLENWOOD       CLEAR     57  55  94 SW6       30.02S
APPLETON       CLEAR     63  55  77 SW6       30.01S
BENSON         CLEAR     61  55  82 W3        30.01S
ORTONVILLE     CLEAR     61  55  82 CALM      30.02R
MADISON        CLEAR     61  57  88 SW7       30.02F
WILLMAR        FAIR      61  57  88 SW5       30.03S
$$
MNZ033>034-036-042>043-049>051-058-059-250600-
   Central Minnesota

CITY           SKY/WX    TMP DP  RH WIND       PRES   REMARKS
ST CLOUD       CLEAR     59  58  96 SW5       30.00R
SAUK CENTRE    FAIR      58  55  91 CALM      30.01S
PAYNESVILLE    CLEAR     59  59 100 CALM      30.02S
AITKIN         CLEAR     57  52  82 CALM      29.95S HAZE
PINE RIVER     CLEAR     54  54 100 CALM      29.99S
BRAINERD       CLEAR     56  55  97 SW5       29.97R
STAPLES        CLEAR     57  52  82 SW3       29.97F
LONG PRAIRIE   FAIR      57  55  94 S3        30.01R
LITTLE FALLS   CLEAR     55  54  94 CALM      29.99R
LITCHFIELD     CLEAR     64  61  88 CALM      30.03S
BUFFALO        PTCLDY    64  59  83 CALM      30.02R
MAPLE LAKE     PTCLDY    64  60  88 CALM      30.02R
HUTCHINSON     CLEAR     63  60  90 SW3       30.03S
$$
MNZ037-044-045-052-053-250600-
   East Central Minnesota

CITY           SKY/WX    TMP DP  RH WIND       PRES   REMARKS
PRINCETON      MOCLDY    63  57  82 SW3       30.00R
MORA           CLOUDY    61  54  77 W3        29.99R
CAMBRIDGE      MOCLDY    64  55  72 CALM      29.97S
RUSH CITY      MOCLDY    61  57  89 CALM      29.98S
MOOSE LAKE     PTCLDY    55  54  94 CALM      29.94S
HINCKLEY       FAIR      59  59 100 SW3       29.97R
CLOQUET        PTCLDY    61  54  77 W3        29.95S
MCGREGOR       PTCLDY    59  55  88 SW3       29.96S
$$
MNZ071>073-080-081-089-090-097-098-250600-
   Southwest Minnesota

CITY           SKY/WX    TMP DP  RH WIND       PRES   REMARKS
MONTEVIDEO     CLEAR     63  57  82 W5        30.04S
GRANITE FALLS  CLEAR     62  58  89 SW6       30.04S
CANBY          PTCLDY    64  56  76 SW5       30.04F
MARSHALL       CLEAR     61  58  90 SW5       30.04S
REDWOOD FALLS  CLEAR     63  57  81 SW7       30.03S
OLIVIA         CLEAR     59  55  88 SW6       30.02S
PIPESTONE      CLEAR     57  55  94 SW3       30.08S
WINDOM         CLEAR     61  57  88 W3        30.07S
WORTHINGTON    CLEAR     59  56  89 W7        30.08S
JACKSON        CLEAR     59  54  82 CALM      30.07F
TRACY          CLEAR     62  58  88 SW5       30.06S
$$
MNZ065>067-074>077-082>085-091>093-250600-
   South Central Minnesota

CITY           SKY/WX    TMP DP  RH WIND       PRES   REMARKS
MANKATO        CLOUDY    64  59  82 W6        30.04S
NEW ULM          N/A     61  61 100 W5        30.03F
ST JAMES       PTCLDY    57  55  94 W6        30.06S
FAIRMONT       MOCLDY    63  59  87 NW8       30.05S
GLENCOE        PTCLDY    64  62  94 CALM      30.02S
FARIBAULT      CLOUDY    64  61  88 SW3       30.04R
OWATONNA       CLOUDY    64  61  88 W3        30.04R
WASECA         CLOUDY    63  61  94 CALM      30.05S
ALBERT LEA     CLOUDY    64  61  88 W5        30.04S
$$
MNZ078>079-086>088-094>096-250600-
   Southeast Minnesota

CITY           SKY/WX    TMP DP  RH WIND       PRES   REMARKS
ROCHESTER      CLOUDY    64  61  90 W6        30.04R
RED WING       PTCLDY    64  61  88 CALM      29.99R
STANTON        CLOUDY    64  59  82 SW5       30.01R
DODGE CENTER   CLOUDY    63  61  94 W5        30.04R
WINONA         CLOUDY    66  61  82 NW3       30.00S
AUSTIN         CLOUDY    66  61  82 W3        30.03S
PRESTON        CLOUDY    64  59  86 NW6       30.03S
$$
ABBREVIATIONS USED IN REMARKS
   TC - TEMPERATURES IN CELSIUS
  WCI - WIND CHILL INDEX
   HX - HEAT INDEX
  VSB - VISIBILITY
$$




USA.gov is the U.S. government's official web portal to all federal, state and local government web resources and services.